TimeCST,TemperatureF,Dew PointF,Humidity,Sea Level PressureIn,VisibilityMPH,Wind Direction,Wind SpeedMPH,Gust SpeedMPH,PrecipitationIn,Events,Conditions,WindDirDegrees,DateUTC
12:15 AM,36.7,23.7,59,29.87,10.0,Calm,Calm,-,N/A,,Clear,0,2012-11-25 06:15:00
12:35 AM,37.0,24.1,59,29.87,10.0,Calm,Calm,-,N/A,,Clear,0,2012-11-25 06:35:00
12:55 AM,36.7,24.1,60,29.87,10.0,Calm,Calm,-,N/A,,Clear,0,2012-11-25 06:55:00
1:15 AM,36.9,24.4,61,29.86,10.0,Calm,Calm,-,N/A,,Clear,0,2012-11-25 07:15:00
1:35 AM,37.4,24.8,60,29.87,10.0,Calm,Calm,-,N/A,,Clear,0,2012-11-25 07:35:00
1:55 AM,37.6,25.3,61,29.86,10.0,Calm,Calm,-,N/A,,Clear,0,2012-11-25 07:55:00
2:15 AM,38.3,25.5,60,29.86,10.0,Calm,Calm,-,N/A,,Clear,0,2012-11-25 08:15:00
2:35 AM,38.3,25.7,61,29.87,10.0,Calm,Calm,-,N/A,,Clear,0,2012-11-25 08:35:00
2:55 AM,39.0,26.2,60,29.87,10.0,Calm,Calm,-,N/A,,Clear,0,2012-11-25 08:55:00
3:15 AM,38.7,25.7,60,29.88,10.0,WNW,5.8,-,N/A,,Clear,290,2012-11-25 09:15:00
3:35 AM,38.3,26.1,61,29.89,10.0,NW,9.2,-,N/A,,Clear,320,2012-11-25 09:35:00
3:55 AM,40.8,25.3,54,29.89,10.0,NNW,11.5,-,N/A,,Clear,340,2012-11-25 09:55:00
4:15 AM,40.6,25.0,54,29.89,10.0,North,9.2,-,N/A,,Clear,350,2012-11-25 10:15:00
4:35 AM,40.1,25.2,55,29.89,10.0,North,5.8,-,N/A,,Clear,350,2012-11-25 10:35:00
4:55 AM,38.8,25.3,58,29.89,10.0,North,8.1,-,N/A,,Clear,350,2012-11-25 10:55:00
5:15 AM,38.8,25.7,59,29.90,10.0,NNW,9.2,-,N/A,,Clear,340,2012-11-25 11:15:00
5:35 AM,39.2,25.7,58,29.92,10.0,Calm,Calm,-,N/A,,Clear,0,2012-11-25 11:35:00
5:55 AM,39.6,26.1,58,29.92,10.0,North,9.2,-,N/A,,Clear,350,2012-11-25 11:55:00
6:15 AM,39.2,26.1,59,29.93,10.0,North,9.2,-,N/A,,Clear,350,2012-11-25 12:15:00
6:35 AM,38.8,26.6,61,29.93,10.0,North,10.4,-,N/A,,Clear,350,2012-11-25 12:35:00
6:55 AM,38.3,26.2,62,29.93,10.0,North,8.1,-,N/A,,Clear,350,2012-11-25 12:55:00
7:15 AM,37.6,26.4,64,29.94,10.0,North,9.2,-,N/A,,Clear,350,2012-11-25 13:15:00
7:35 AM,37.8,26.6,64,29.95,10.0,North,9.2,-,N/A,,Clear,350,2012-11-25 13:35:00
7:55 AM,37.4,26.6,65,29.95,10.0,North,8.1,-,N/A,,Clear,350,2012-11-25 13:55:00
8:15 AM,39.2,27.5,63,29.96,10.0,North,8.1,-,N/A,,Clear,360,2012-11-25 14:15:00
8:35 AM,39.9,27.7,62,29.97,10.0,North,10.4,-,N/A,,Clear,360,2012-11-25 14:35:00
8:55 AM,40.8,27.7,60,29.98,10.0,NNE,11.5,-,N/A,,Clear,20,2012-11-25 14:55:00
9:15 AM,41.5,27.5,57,29.99,10.0,North,8.1,-,N/A,,Clear,10,2012-11-25 15:15:00
9:55 AM,41.9,27.5,57,30.00,10.0,NNE,9.2,-,N/A,,Clear,20,2012-11-25 15:55:00
10:15 AM,42.4,27.5,56,30.00,10.0,NNE,11.5,-,N/A,,Clear,30,2012-11-25 16:15:00
10:35 AM,42.8,27.1,54,30.01,10.0,NNE,11.5,-,N/A,,Clear,30,2012-11-25 16:35:00
10:55 AM,42.8,27.3,54,30.00,10.0,NNE,10.4,-,N/A,,Clear,30,2012-11-25 16:55:00
11:15 AM,44.1,27.9,53,29.99,10.0,NNE,8.1,-,N/A,,Clear,20,2012-11-25 17:15:00
11:35 AM,44.2,28.2,53,30.00,10.0,NNE,8.1,-,N/A,,Clear,30,2012-11-25 17:35:00
11:55 AM,43.9,28.2,54,29.99,10.0,Calm,Calm,-,N/A,,Clear,0,2012-11-25 17:55:00
12:15 PM,44.1,28.4,54,29.98,10.0,Calm,Calm,-,N/A,,Scattered Clouds,0,2012-11-25 18:15:00
12:35 PM,44.1,28.2,54,29.97,10.0,NNE,8.1,-,N/A,,Scattered Clouds,30,2012-11-25 18:35:00
12:55 PM,44.6,28.2,53,29.97,10.0,NNE,6.9,-,N/A,,Scattered Clouds,20,2012-11-25 18:55:00
1:15 PM,44.2,28.2,53,29.98,10.0,NNE,6.9,-,N/A,,Scattered Clouds,20,2012-11-25 19:15:00
1:35 PM,44.6,28.0,52,29.97,10.0,North,9.2,-,N/A,,Mostly Cloudy,10,2012-11-25 19:35:00
1:55 PM,45.0,28.4,52,29.98,10.0,North,9.2,-,N/A,,Mostly Cloudy,10,2012-11-25 19:55:00
2:15 PM,44.6,27.5,51,29.98,10.0,NNE,12.7,-,N/A,,Mostly Cloudy,20,2012-11-25 20:15:00
2:35 PM,44.6,28.0,52,29.98,10.0,North,11.5,-,N/A,,Mostly Cloudy,360,2012-11-25 20:35:00
2:55 PM,44.6,27.5,51,29.98,10.0,North,10.4,-,N/A,,Scattered Clouds,10,2012-11-25 20:55:00
3:15 PM,45.9,28.2,50,29.98,10.0,North,11.5,-,N/A,,Scattered Clouds,360,2012-11-25 21:15:00
3:35 PM,44.6,27.5,51,29.98,10.0,NNE,10.4,-,N/A,,Scattered Clouds,30,2012-11-25 21:35:00
3:55 PM,43.0,27.5,54,29.98,10.0,NNE,12.7,-,N/A,,Clear,30,2012-11-25 21:55:00
4:15 PM,42.1,27.5,56,29.98,10.0,NNE,9.2,-,N/A,,Clear,30,2012-11-25 22:15:00
4:35 PM,40.5,27.3,59,29.99,10.0,NNE,8.1,-,N/A,,Clear,20,2012-11-25 22:35:00
4:55 PM,38.8,27.0,62,30.00,10.0,NNE,11.5,-,N/A,,Clear,20,2012-11-25 22:55:00
5:15 PM,37.4,27.1,66,30.00,10.0,NNE,10.4,-,N/A,,Clear,20,2012-11-25 23:15:00
5:35 PM,36.0,26.6,69,30.01,10.0,NNE,8.1,-,N/A,,Clear,20,2012-11-25 23:35:00
5:55 PM,34.3,26.4,73,30.02,10.0,NNE,6.9,-,N/A,,Clear,30,2012-11-25 23:55:00
6:15 PM,33.4,26.2,75,30.01,10.0,NE,8.1,-,N/A,,Clear,40,2012-11-26 00:15:00
6:35 PM,32.0,25.7,78,30.02,10.0,NNE,9.2,-,N/A,,Clear,20,2012-11-26 00:35:00
6:55 PM,31.1,25.3,79,30.03,10.0,NNE,8.1,-,N/A,,Clear,30,2012-11-26 00:55:00
7:15 PM,31.1,25.2,79,30.04,10.0,NNE,5.8,-,N/A,,Clear,30,2012-11-26 01:15:00
7:35 PM,30.7,25.0,79,30.04,10.0,NNE,9.2,-,N/A,,Clear,30,2012-11-26 01:35:00
7:55 PM,31.1,25.5,80,30.05,10.0,NNE,8.1,-,N/A,,Clear,20,2012-11-26 01:55:00
8:15 PM,30.2,25.0,81,30.05,10.0,Calm,Calm,-,N/A,,Clear,0,2012-11-26 02:15:00
8:35 PM,30.2,24.8,80,30.05,10.0,Calm,Calm,-,N/A,,Clear,0,2012-11-26 02:35:00
8:55 PM,31.3,25.7,80,30.05,10.0,Calm,Calm,-,N/A,,Clear,0,2012-11-26 02:55:00
9:15 PM,32.0,26.4,80,30.08,10.0,North,8.1,-,N/A,,Clear,10,2012-11-26 03:15:00
9:35 PM,31.8,26.6,81,30.08,10.0,Calm,Calm,-,N/A,,Clear,0,2012-11-26 03:35:00
9:55 PM,31.6,26.6,82,30.09,10.0,Calm,Calm,-,N/A,,Clear,0,2012-11-26 03:55:00
10:15 PM,32.0,27.0,82,30.10,10.0,NNE,6.9,-,N/A,,Clear,30,2012-11-26 04:15:00
10:35 PM,30.9,26.1,82,30.11,10.0,NNE,9.2,-,N/A,,Clear,20,2012-11-26 04:35:00
10:55 PM,30.7,25.9,82,30.11,10.0,Calm,Calm,-,N/A,,Clear,0,2012-11-26 04:55:00
11:15 PM,30.0,25.7,84,30.12,10.0,Calm,Calm,-,N/A,,Clear,0,2012-11-26 05:15:00
11:35 PM,30.6,26.1,83,30.12,10.0,Calm,Calm,-,N/A,,Clear,0,2012-11-26 05:35:00
11:55 PM,30.9,26.6,84,30.13,10.0,Calm,Calm,-,N/A,,Clear,0,2012-11-26 05:55:00